DL8NDG-13 Weather Reports


Display with metric or nautical units.
time (UTC)temp
F
wind
direction
speed
MPH
gust
MPH
rain 1hr
in
rain 24hr
in
rain mn
in
humidity
%
barometer
mb
20260509064548 49 51 0.0 0.0 0.00 0.00 0.00 85 1018.6
20260509063051 49 61 0.0 0.0 0.00 0.00 0.00 85 1018.6
20260509061545 48 61 0.0 0.0 0.00 0.00 0.00 83 1018.6
20260509060043 47 65 0.0 0.0 0.00 0.00 0.00 83 1018.5
20260509054542 47 44 0.0 0.0 0.00 0.00 0.00 82 1018.6
20260509053044 46 27 0.0 0.0 0.00 0.00 0.00 83 1018.4
20260509051537 46 27 0.0 0.0 0.00 0.00 0.00 83 1018.0
20260509050048 45 27 0.0 0.0 0.00 0.00 0.00 84 1017.9
20260509044534 44 27 0.0 0.0 0.00 0.00 0.00 85 1017.8
20260509043036 44 27 0.0 0.0 0.00 0.00 0.00 85 1017.7
20260509041527 44 26 0.0 0.0 0.00 0.00 0.00 85 1017.6
20260509040026 44 27 0.0 0.0 0.00 0.00 0.00 85 1017.7
20260509034525 44 24 0.0 0.0 0.00 0.00 0.00 86 1017.8
20260509033034 44 23 0.0 0.0 0.00 0.00 0.00 86 1017.6
20260509031527 44 23 0.0 0.0 0.00 0.00 0.00 86 1017.5
20260509030022 45 22 0.0 0.0 0.00 0.00 0.00 86 1017.5
20260509024519 45 22 0.0 0.0 0.00 0.00 0.00 86 1017.6
20260509023019 45 24 0.0 0.0 0.00 0.00 0.00 86 1017.6
20260509021518 45 24 0.0 0.0 0.00 0.00 0.00 86 1017.7
20260509020020 45 23 0.0 0.0 0.00 0.00 0.00 87 1017.6
20260509014517 45 23 0.0 0.0 0.00 0.00 0.00 87 1017.5
20260509013016 45 24 0.0 0.0 0.00 0.00 0.00 87 1017.5
20260509011515 45 22 0.0 0.0 0.00 0.00 0.00 87 1017.6
20260509010015 46 24 0.0 0.0 0.00 0.00 0.00 87 1017.6
20260509004511 46 23 0.0 0.0 0.00 0.00 0.00 87 1017.6
20260509003010 46 23 0.0 0.0 0.00 0.00 0.00 87 1017.7
20260509001509 46 23 0.0 0.0 0.00 0.00 0.00 87 1017.7
20260509000007 46 24 0.0 0.0 0.00 0.00 0.00 87 1017.6
20260508234507 47 22 0.0 0.0 0.00 0.00 0.00 87 1017.4
20260508233005 47 24 0.0 0.0 0.00 0.00 0.00 87 1017.6
20260508231502 47 24 0.0 0.0 0.00 0.00 0.00 86 1017.8
20260508230004 47 23 0.0 0.0 0.00 0.00 0.00 86 1017.7
20260508224613 47 24 0.0 0.0 0.00 0.00 0.00 86 1017.7
20260508223058 48 23 0.0 0.0 0.00 0.00 0.00 85 1017.7
20260508221658 48 24 0.0 0.0 0.00 0.00 0.00 85 1017.7
20260508220053 49 23 0.0 0.0 0.00 0.00 0.00 85 1017.7
20260508214552 49 22 0.0 0.0 0.00 0.00 0.00 84 1017.6
20260508213053 49 22 0.0 0.0 0.00 0.00 0.00 83 1017.7
20260508211553 50 23 0.0 0.0 0.00 0.00 0.00 83 1017.6
20260508210049 50 24 0.0 0.0 0.00 0.00 0.00 82 1017.4
20260508204549 51 23 0.0 0.0 0.00 0.00 0.00 82 1017.4
20260508203051 52 23 0.0 0.0 0.00 0.00 0.00 81 1017.5
20260508201547 52 22 0.0 0.0 0.00 0.00 0.00 80 1017.4
20260508200055 52 24 0.0 0.0 0.00 0.00 0.00 79 1017.4
20260508194546 53 23 0.0 0.0 0.00 0.00 0.00 78 1017.3
20260508193057 54 23 0.0 0.0 0.00 0.00 0.00 77 1017.1
20260508191545 54 23 0.0 0.0 0.00 0.00 0.00 75 1016.9
20260508190043 55 22 0.0 0.0 0.00 0.00 0.00 74 1016.6
20260508184544 56 24 0.0 0.0 0.00 0.00 0.00 71 1016.4
20260508183059 57 22 0.0 0.0 0.00 0.00 0.00 69 1016.3
20260508181551 58 24 0.0 0.0 0.00 0.00 0.00 66 1016.2
20260508180042 59 24 0.0 0.0 0.00 0.00 0.00 64 1015.9
20260508174541 60 23 0.0 0.0 0.00 0.00 0.00 62 1015.9
20260508173041 61 26 0.0 0.0 0.00 0.00 0.00 61 1015.8
20260508171547 62 23 0.0 0.0 0.00 0.00 0.00 58 1015.8
20260508170039 62 23 0.0 0.0 0.00 0.00 0.00 59 1015.8
20260508164539 63 29 0.0 0.0 0.00 0.00 0.00 57 1015.8
20260508163045 64 29 0.0 0.0 0.00 0.00 0.00 57 1015.9
20260508161540 62 5 0.0 0.0 0.00 0.00 0.00 57 1015.8
20260508160039 62 5 0.0 0.0 0.00 0.00 0.00 59 1015.7
20260508154536 62 360 0.0 0.0 0.00 0.00 0.00 55 1015.8
20260508153035 63 11 0.0 0.0 0.00 0.00 0.00 54 1015.8
20260508151634 63 13 0.0 0.0 0.00 0.00 0.00 53 1015.8
20260508150039 62 15 0.0 0.0 0.00 0.00 0.00 55 1015.9
20260508144541 62 15 0.0 0.0 0.00 0.00 0.00 56 1016.0
20260508143037 64 15 0.0 0.0 0.00 0.00 0.00 57 1016.1
20260508141531 64 5 0.0 0.0 0.00 0.00 0.00 52 1016.2
20260508140037 62 294 0.0 0.0 0.00 0.00 0.00 56 1016.4
20260508134530 63 5 0.0 0.0 0.00 0.00 0.00 56 1016.5
20260508133026 61 11 0.0 0.0 0.00 0.00 0.00 58 1016.7
20260508131525 62 360 0.0 0.0 0.00 0.00 0.00 56 1016.6
20260508130027 61 11 0.0 0.0 0.00 0.00 0.00 59 1016.6
20260508124525 62 13 0.0 0.0 0.00 0.00 0.00 58 1016.9
20260508123025 63 360 0.0 0.0 0.00 0.00 0.00 59 1016.9
20260508121524 59 276 0.0 0.0 0.00 0.00 0.00 60 1017.0
20260508120023 60 262 0.0 0.0 0.00 0.00 0.00 63 1016.9
20260508114530 60 360 0.0 0.0 0.00 0.00 0.00 60 1017.0
20260508113027 62 27 0.0 0.0 0.00 0.00 0.00 59 1016.8
20260508111515 62 34 0.0 0.0 0.00 0.00 0.00 63 1017.1
20260508110013 59 32 0.0 0.0 0.00 0.00 0.00 66 1017.0
20260508104512 59 30 0.0 0.0 0.00 0.00 0.00 64 1017.2
20260508103009 60 43 1.0 9.0 0.00 0.00 0.00 63 1017.2
20260508101507 60 38 0.0 4.0 0.00 0.00 0.00 63 1017.3
20260508100002 59 28 2.0 5.0 0.00 0.00 0.00 69 1017.4
20260508094558 56 24 1.0 6.0 0.00 0.04 0.00 74 1017.5
20260508093056 54 360 0.0 0.0 0.00 0.04 0.00 79 1017.6
20260508091552 54 360 0.0 0.0 0.00 0.04 0.00 77 1017.7
20260508090053 53 360 0.0 0.0 0.00 0.04 0.00 78 1017.7
20260508084550 53 360 0.0 0.0 0.00 0.06 0.00 79 1017.6
20260508083047 53 360 0.0 0.0 0.00 0.06 0.00 81 1017.7
20260508081544 52 273 0.0 0.0 0.00 0.06 0.00 82 1017.9
20260508080039 51 273 0.0 0.0 0.00 0.06 0.00 84 1017.9
20260508074537 50 273 0.0 0.0 0.00 0.08 0.00 84 1017.9
20260508073036 50 196 0.0 0.0 0.00 0.08 0.00 86 1017.9
20260508071533 50 273 0.0 0.0 0.00 0.08 0.00 87 1017.7
20260508070028 49 267 0.0 0.0 0.00 0.08 0.00 87 1017.6